Weather in Luk'yanovka

Russia / Lipetsk Oblast     52°57′47″N   38°14′59″E
temp.,
°C
wind,
m/s
gust,
m/s
humid.,
%
clouds,
%
prec.,
mm/h
press.,
hPa
HPBL,
m
13 april, tue
tue1300:00+12se5146992 0.0 1025274
03:00+10se4127561 0.0 1025197
06:00+8se4117483 0.0 1026171
09:00+13se5115918 0.0 1025324
12:00+18se6103923 0.0 10241155
15:00+21se81126100 0.0 10231983
18:00+19se611345 0.0 1022438
21:00+14se5134878 0.0 1023249
14 april, wed
wed1400:00+12se5145658 0.0 1022321
03:00+10se4106598 0.0 1022191
06:00+9se4868100 0.0 1021147
09:00+13se51054100 0.0 1020329
12:00+17se6837100 0.0 1019941
15:00+19se683126 0.0 10182079
18:00+17se4733100 0.0 1017281
21:00+13se374678 0.0 1017118
15 april, thu
thu1500:00+11sse335472 0.0 101749
03:00+10se016087 0.0 101611
06:00+10nw2259100 0.0 101625
09:00+13e3555100 0.0 1016267
12:00+16se3345100 0.0 1015715
15:00+18ene444199 0.0 10141480
18:00+17ene3647100 0.0 1013214
21:00
16 april, fri
fri1600:00+12s2275100 0.1 101426
03:00+11nnw2278100 0.1 101318
06:00+10ne3383100 0.2 101360
09:00+13e2268100 0.4 1014277
12:00+16ese3456100 0.0 1014948
15:00+17e3549100 0.1 10141445
18:00+14s6674100 3.4 1015436
21:00+14s1168100 1.0 101639
17 april, sat
sat1700:00+10nne358994 0.1 1017142
03:00+10ne5109299 0.5 1017532
06:00+9ene61091100 0.8 1018544
09:00+9ne6988100 0.8 1019630
12:00+11ene61074100 0.1 1020982
15:00+14ene81161100 0.1 10201405
18:00+13ne812575 0.0 10201130
21:00+10ne815535 0.0 1023619